Weather History for Fremont, NE

Change the Weather History Date:

Friday, September 13, 2013

  Actual Average Record
Temperature  
Mean Temperature 62 °F -  
Max Temperature 77 °F 78 °F 97 °F (1955)
Min Temperature 48 °F 54 °F 36 °F (1949)
Degree Days  
Heating Degree Days 2    
Growing Degree Days 12 (Base 50)    
Moisture  
Dew Point 50 °F    
Average Humidity 66    
Maximum Humidity 97    
Minimum Humidity 37    
Precipitation  
Precipitation 0.00 in - - ()
Sea Level Pressure  
Sea Level Pressure 30.18 in    
Wind  
Wind Speed 2 mph (ESE)    
Max Wind Speed 9 mph    
Max Gust Speed -    
Visibility 9 miles    
Events      
Averages and records for this station are not official NWS values.
T = Trace of Precipitation, MM = Missing Value Source: NWS Daily Summary

Daily Weather History Graph

Daily Weather History Graph

Search for Another Location

Airport:

Trip Planner

Search our weather history database for the weather conditions in past years. The results will help you decide how hot, cold, wet, or windy it might be!

Date:

Astronomy

Sep. 13, 2013 Rise Set
Actual Time 7:04 AM CDT 7:38 PM CDT
Civil Twilight 6:36 AM CDT 8:06 PM CDT
Nautical Twilight 6:03 AM CDT 8:38 PM CDT
Astronomical Twilight 5:30 AM CDT 9:12 PM CDT
Moon 3:32 PM CDT (9/13) 12:32 AM CDT (9/13)
Length of Visible Light 13h 29m
Length of Day
12h 33m
First Quarter, 61% of the Moon is Illuminated
Sep 13
First Quarter
Sep 19
Full
Sep 26
Last Quarter
Oct 4
New
Oct 11
First Quarter

Hourly Weather History & Observations

Time (CDT) Temp. Dew Point Humidity Pressure Visibility Wind Dir Wind Speed Gust Speed Precip Events Conditions
12:15 AM 57.6 °F 51.1 °F 79% 30.22 in 10.0 mi Calm Calm - N/A   Clear
12:35 AM 58.5 °F 51.4 °F 77% 30.21 in 10.0 mi Calm Calm - N/A   Clear
12:55 AM 56.3 °F 50.9 °F 82% 30.22 in 10.0 mi Calm Calm - N/A   Clear
1:15 AM 55.4 °F 50.2 °F 83% 30.21 in 10.0 mi Calm Calm - N/A   Clear
1:35 AM 54.5 °F 50.0 °F 85% 30.22 in 10.0 mi Calm Calm - N/A   Clear
1:55 AM 54.0 °F 50.0 °F 86% 30.22 in 10.0 mi Calm Calm - N/A   Clear
2:15 AM 53.8 °F 50.4 °F 88% 30.22 in 10.0 mi Calm Calm - N/A   Clear
2:35 AM 53.4 °F 50.4 °F 89% 30.22 in 10.0 mi Calm Calm - N/A   Clear
2:55 AM 53.1 °F 50.0 °F 89% 30.22 in 10.0 mi Calm Calm - N/A   Clear
3:15 AM 53.6 °F 50.9 °F 91% 30.22 in 10.0 mi NW 4.6 mph - N/A   Clear
3:35 AM 52.7 °F 50.4 °F 92% 30.22 in 10.0 mi Calm Calm - N/A   Clear
3:55 AM 50.2 °F 48.4 °F 94% 30.21 in 10.0 mi Calm Calm - N/A   Clear
4:15 AM 52.7 °F 50.4 °F 92% 30.22 in 10.0 mi Calm Calm - N/A   Clear
4:35 AM 51.6 °F 49.6 °F 93% 30.22 in 10.0 mi Calm Calm - N/A   Clear
4:55 AM 51.8 °F 50.2 °F 94% 30.22 in 10.0 mi Calm Calm - N/A   Clear
5:15 AM 51.1 °F 49.5 °F 94% 30.22 in 10.0 mi Calm Calm - N/A   Clear
5:35 AM 49.6 °F 48.2 °F 95% 30.22 in 10.0 mi Calm Calm - N/A   Clear
5:55 AM 49.8 °F 48.2 °F 94% 30.22 in 10.0 mi Calm Calm - N/A   Clear
6:15 AM 50.0 °F 48.6 °F 95% 30.22 in 10.0 mi Calm Calm - N/A   Clear
6:35 AM 49.8 °F 48.9 °F 97% 30.23 in 10.0 mi Calm Calm - N/A   Clear
6:55 AM 48.6 °F 47.8 °F 97% 30.23 in 10.0 mi Calm Calm - N/A   Clear
7:15 AM 48.7 °F 47.8 °F 97% 30.23 in 10.0 mi Calm Calm - N/A   Clear
7:35 AM 50.0 °F 48.9 °F 96% 30.23 in 10.0 mi Calm Calm - N/A   Clear
7:55 AM 50.5 °F 49.6 °F 97% 30.25 in 10.0 mi Calm Calm - N/A   Clear
8:15 AM 53.2 °F 50.9 °F 92% 30.24 in 10.0 mi Calm Calm - N/A   Clear
8:35 AM 56.7 °F 52.5 °F 86% 30.25 in 10.0 mi Calm Calm - N/A   Clear
8:55 AM 60.1 °F 52.0 °F 75% 30.24 in 10.0 mi ENE 3.5 mph - N/A   Clear
9:15 AM 62.4 °F 51.1 °F 66% 30.25 in 10.0 mi East 3.5 mph - N/A   Clear
9:35 AM 64.0 °F 50.5 °F 61% 30.25 in 10.0 mi ESE 5.8 mph - N/A   Clear
9:55 AM 65.1 °F 50.7 °F 60% 30.25 in 10.0 mi ESE 4.6 mph - N/A   Clear
10:15 AM 66.9 °F 51.6 °F 58% 30.25 in 10.0 mi SE 5.8 mph - N/A   Clear
10:35 AM 68.2 °F 51.1 °F 54% 30.25 in 10.0 mi SE 3.5 mph - N/A   Clear
10:55 AM 69.6 °F 50.0 °F 50% 30.25 in 10.0 mi East 5.8 mph - N/A   Clear
11:15 AM 70.9 °F 49.8 °F 47% 30.24 in 10.0 mi ESE 4.6 mph - N/A   Clear
11:35 AM 71.8 °F 48.6 °F 44% 30.24 in 10.0 mi SSE 5.8 mph - N/A   Clear
11:55 AM 72.9 °F 47.7 °F 41% 30.22 in 10.0 mi ESE 5.8 mph - N/A   Clear
12:15 PM 72.5 °F 47.5 °F 41% 30.22 in 10.0 mi Calm Calm - N/A   Clear
12:35 PM 72.7 °F 47.7 °F 41% 30.21 in 10.0 mi Calm Calm - N/A   Clear
12:55 PM 74.1 °F 48.4 °F 40% 30.20 in 10.0 mi ENE 4.6 mph - N/A   Clear
1:15 PM 74.1 °F 48.2 °F 40% 30.19 in 10.0 mi Calm Calm - N/A   Clear
1:35 PM 75.0 °F 48.6 °F 39% 30.19 in 10.0 mi SSE 3.5 mph - N/A   Clear
1:55 PM 75.7 °F 49.1 °F 39% 30.17 in 10.0 mi East 6.9 mph - N/A   Clear
2:15 PM 75.0 °F 49.1 °F 40% 30.16 in 10.0 mi SSE 3.5 mph - N/A   Clear
2:35 PM 75.0 °F 48.9 °F 40% 30.16 in 10.0 mi South 5.8 mph - N/A   Clear
2:55 PM 75.9 °F 49.3 °F 39% 30.16 in 10.0 mi ENE 8.1 mph - N/A   Clear
3:15 PM 76.5 °F 49.3 °F 38% 30.15 in 10.0 mi NE 5.8 mph - N/A   Clear
3:35 PM 76.8 °F 49.3 °F 38% 30.14 in 10.0 mi ENE 9.2 mph - N/A   Clear
3:55 PM 77.2 °F 49.3 °F 37% 30.13 in 10.0 mi North 4.6 mph - N/A   Clear
4:15 PM 75.9 °F 49.3 °F 39% 30.13 in 10.0 mi Calm Calm - N/A   Clear
4:35 PM 76.3 °F 48.6 °F 38% 30.13 in 10.0 mi Calm Calm - N/A   Clear
4:55 PM 76.6 °F 48.9 °F 38% 30.12 in 10.0 mi SE 4.6 mph - N/A   Clear
5:15 PM 75.6 °F 49.1 °F 39% 30.12 in 10.0 mi SE 5.8 mph - N/A   Clear
5:35 PM 75.6 °F 49.8 °F 40% 30.11 in 10.0 mi East 5.8 mph - N/A   Clear
5:55 PM 75.0 °F 49.8 °F 41% 30.11 in 10.0 mi East 5.8 mph - N/A   Clear
6:15 PM 73.6 °F 50.4 °F 44% 30.11 in 10.0 mi East 8.1 mph - N/A   Clear
6:35 PM 72.9 °F 50.2 °F 45% 30.10 in 10.0 mi ESE 6.9 mph - N/A   Clear
6:55 PM 71.4 °F 50.2 °F 47% 30.09 in 10.0 mi East 5.8 mph - N/A   Clear
7:15 PM 70.7 °F 50.9 °F 49% 30.09 in 10.0 mi East 5.8 mph - N/A   Clear
7:35 PM 68.9 °F 51.4 °F 54% 30.09 in 10.0 mi ESE 5.8 mph - N/A   Clear
7:55 PM 67.6 °F 51.8 °F 57% 30.09 in 10.0 mi ESE 4.6 mph - N/A   Clear
8:15 PM 67.1 °F 52.0 °F 58% 30.10 in 10.0 mi East 6.9 mph - N/A   Clear
8:35 PM 66.2 °F 51.6 °F 59% 30.10 in 7.0 mi East 6.9 mph - N/A   Clear
8:55 PM 64.6 °F 51.4 °F 62% 30.10 in 5.0 mi ESE 5.8 mph - N/A   Haze
9:15 PM 63.9 °F 51.6 °F 64% 30.10 in 4.0 mi East 4.6 mph - N/A   Haze
9:35 PM 61.7 °F 51.6 °F 69% 30.10 in 3.0 mi ESE 5.8 mph - N/A   Haze
9:55 PM 63.0 °F 51.1 °F 65% 30.10 in 3.0 mi ESE 6.9 mph - N/A   Haze
10:15 PM 61.2 °F 50.9 °F 69% 30.09 in 5.0 mi SE 5.8 mph - N/A   Haze
10:35 PM 59.7 °F 50.9 °F 73% 30.09 in 3.0 mi SE 4.6 mph - N/A   Haze
10:55 PM 60.1 °F 50.5 °F 71% 30.09 in 5.0 mi SE 4.6 mph - N/A   Haze
11:15 PM 60.3 °F 50.9 °F 71% 30.09 in 2.0 mi ESE 4.6 mph - N/A   Haze
11:35 PM 59.5 °F 51.1 °F 74% 30.08 in 2.0 mi ESE 3.5 mph - N/A   Haze
11:55 PM 60.8 °F 52.0 °F 73% 30.08 in 1.5 mi Calm Calm - N/A   Haze